Flag for Germany Weather past 2 weeks in Dormagen, North Rhine-Westphalia, Germany

Now
63 °F

Partly sunny.


Feels Like: 63 °F
Forecast: 48 / 61 °F
Wind: 20 mph from Southwest

Location: Duesseldorf

Current Time: May 29, 2015 at 5:23:10 PM

Latest Report: May 29, 2015 at 4:50 PM


Visibility: N/A

Pressure: 29.77 "Hg

Humidity: 45%

Dew point: 41 °F

Location of DormagenLocation

Historic Weather in Dormagen — Graph

°F

Dormagen temperature yesterday

Maximum temperature yesterday: 66 °F (at 4:20 PM)
Minimum temperature yesterday: 54 °F (at 10:50 PM)
Average temperature yesterday: 58 °F

Past Weeks' High & Low Weather Summary

 TemperatureHumidityPressure
High70 °F (May 18, 2:50 PM)100% (May 16, 3:50 PM)30.33 "Hg (May 16, 3:50 PM)
Low37 °F (May 21, 4:20 AM)33% (May 22, 3:50 PM)29.65 "Hg (May 18, 6:20 PM)
Average55 °F66%30.06 "Hg
* Reported May 14 4:20 PM — May 29 4:20 PM, Dormagen, Weather by CustomWeather, © 2015

Note: Actual official high and low records may vary slightly from our data, if they occured in-between our weather recording intervals... More about our weather records

Advertising

Dormagen weather history for previous 24 hours

 ConditionsComfort  
Time TempWeatherWind HumidityBarometerVisibility
4:20 PM
Fri, May 29
63 °FBroken clouds.20 mph49%29.77 "HgN/A
3:50 PM63 °FPartly sunny.20 mph49%29.77 "HgN/A
3:20 PM63 °FBroken clouds.17 mph49%29.77 "HgN/A
2:50 PM61 °FBroken clouds.18 mph48%29.77 "HgN/A
2:20 PM61 °FPartly sunny.14 mph52%29.80 "HgN/A
1:50 PM61 °FMore clouds than sun.16 mph48%29.80 "HgN/A
1:20 PM59 °FMore clouds than sun.15 mph55%29.83 "HgN/A
12:50 PM59 °FOvercast.16 mph55%29.83 "HgN/A
12:20 PM59 °FOvercast.18 mph55%29.83 "HgN/A
11:50 AM59 °FOvercast.15 mph51%29.83 "HgN/A
11:20 AM59 °FOvercast.14 mph55%29.86 "HgN/A
10:50 AM57 °FOvercast.13 mph63%29.86 "HgN/A
10:20 AM57 °FPartly sunny.12 mph63%29.86 "HgN/A
9:50 AM55 °FBroken clouds.12 mph67%29.86 "HgN/A
9:20 AM54 °FBroken clouds.8 mph72%29.89 "HgN/A
8:50 AM54 °FBroken clouds.7 mph77%29.89 "HgN/A
8:20 AM52 °FBroken clouds.7 mph77%29.89 "HgN/A
7:50 AM52 °FBroken clouds.7 mph77%29.89 "HgN/A
7:20 AM52 °FScattered clouds.8 mph82%29.89 "HgN/A
6:50 AM50 °FScattered clouds.7 mph88%29.89 "HgN/A
6:20 AM50 °FPartly cloudy.9 mph88%29.89 "HgN/A
5:50 AM50 °FClear.7 mph82%29.89 "Hg10 mi
5:20 AM50 °FClear.7 mph88%29.89 "Hg10 mi
4:50 AM52 °FClear.6 mph94%29.92 "Hg10 mi
4:20 AM52 °FFog.1 mph94%29.92 "HgN/A
3:50 AM52 °FFog.3 mph94%29.92 "HgN/A
3:20 AM52 °FFog.3 mph94%29.92 "HgN/A
2:50 AM52 °FFog.2 mph94%29.95 "HgN/A
2:20 AM52 °FClear.1 mph100%29.95 "Hg10 mi
1:50 AM52 °FClear.1 mph100%29.95 "Hg10 mi
1:20 AM52 °FClear.2 mph100%29.95 "Hg10 mi
12:50 AM52 °FFog.1 mph100%29.95 "HgN/A
12:20 AM52 °FFog.2 mph94%29.95 "HgN/A
11:50 PM
Thu, May 28
54 °FFog.No wind88%29.95 "HgN/A
11:20 PM54 °FFog.No wind94%29.95 "HgN/A
10:50 PM54 °FPassing clouds.2 mph94%29.95 "HgN/A
10:20 PM55 °FPartly sunny.2 mph88%29.95 "HgN/A
9:50 PM55 °FPartly sunny.3 mph88%29.95 "HgN/A
9:20 PM55 °FPartly sunny.6 mph94%29.95 "HgN/A
8:50 PM55 °FPartly sunny.6 mph88%29.95 "HgN/A
8:20 PM55 °FPartly sunny.6 mph88%29.95 "HgN/A
7:50 PM55 °FSprinkles. Broken clouds.5 mph94%29.95 "HgN/A
7:20 PM55 °FSprinkles. Partly sunny.7 mph88%29.95 "HgN/A
6:50 PM55 °FPartly sunny.6 mph88%29.95 "HgN/A
6:20 PM55 °FSprinkles. Partly sunny.8 mph88%29.92 "HgN/A
5:50 PM55 °FSprinkles. Partly sunny.7 mph88%29.92 "Hg6 mi
5:20 PM55 °FSprinkles. Partly sunny.15 mph82%29.92 "HgN/A
Weather by CustomWeather, © 2015

See weather overviewHow to use our weather pages